Theta_e
348 344 345 346 346 345 346 349 350 349 350 350 350 350 351 351 351 352 352 352 352 352 352 352 351 349 350 350 349 348 347 346 345 343 344 345 346 347 347 346 346 343 342 343 346 347 347 347 346 344 344 344 346 347 347 347 346 346 346 346 346 345 344 343 343 342 343 344 343 343 342 341 340 339 339 338 338 338 338 338 337 338 339 339 340
347 344 345 347 347 347 347 349 349 349 349 351 350 350 351 351 352 353 353 352 352 352 351 351 352 351 350 349 348 346 345 345 344 343 343 343 344 345 345 345 345 344 342 343 344 345 345 346 346 345 344 343 345 347 347 347 347 346 346 346 345 345 344 345 344 343 344 344 344 344 343 342 340 340 339 338 338 338 338 337 337 338 338 339 340
345 343 345 348 348 348 348 348 349 350 349 350 350 350 350 351 351 353 353 352 352 351 350 349 351 350 347 344 344 345 343 342 341 340 343 343 343 343 345 345 345 344 342 342 343 343 344 345 346 346 345 344 345 347 347 347 347 345 346 346 345 344 344 345 344 344 344 344 344 344 343 342 341 341 340 339 339 338 337 337 337 338 338 338 339
342 341 344 347 348 349 348 349 350 350 349 350 350 349 350 350 349 350 351 351 352 351 347 346 348 345 340 339 340 341 340 338 339 339 340 342 340 341 344 345 346 344 342 342 343 343 342 344 346 346 346 346 345 345 345 346 346 345 346 345 344 344 343 343 344 344 344 344 344 343 343 343 342 342 341 341 340 339 338 338 338 338 338 339 339
342 341 343 345 348 348 349 349 350 350 350 349 350 350 351 351 351 351 352 352 353 351 345 344 345 341 337 338 338 339 339 339 342 341 340 342 341 341 344 346 347 346 344 343 342 342 341 342 345 346 345 346 346 345 344 345 345 345 346 344 344 345 343 343 343 343 344 344 344 343 343 343 342 341 341 341 341 341 340 340 340 339 339 339 339
343 342 342 344 347 349 349 350 350 350 350 349 350 351 351 352 353 353 353 354 352 348 342 342 341 339 340 340 339 341 341 341 342 342 342 342 342 341 343 345 346 347 347 345 343 341 339 340 344 345 345 345 346 346 345 345 345 346 346 345 344 344 344 344 343 342 343 344 344 344 343 343 343 342 341 341 341 341 341 341 340 339 339 339 339
343 344 345 346 348 350 350 350 350 350 349 350 350 352 353 353 353 353 354 354 350 345 340 339 338 339 341 340 341 342 342 342 342 343 344 342 343 343 343 345 346 347 348 348 347 343 339 338 341 344 345 345 346 346 347 347 346 346 346 346 345 345 344 344 344 343 343 343 343 344 343 342 343 343 342 341 341 340 340 340 339 339 338 338 338
343 345 346 347 349 350 351 350 351 350 350 350 350 353 354 354 354 353 353 353 349 343 341 339 338 340 340 339 340 342 343 343 343 344 344 345 346 345 344 345 345 346 347 348 350 346 340 337 339 342 344 345 346 347 347 347 346 345 345 346 345 345 344 343 344 344 344 342 342 343 342 341 342 343 342 342 342 341 340 339 339 339 338 338 338
343 346 347 348 349 350 350 351 351 350 350 350 351 353 354 354 355 353 353 352 348 343 342 341 339 340 340 340 341 343 344 343 344 345 345 346 347 347 346 345 345 345 347 349 350 349 344 339 338 341 344 346 347 347 347 347 346 345 345 346 346 345 344 343 343 343 343 343 342 343 343 343 343 343 343 343 343 342 341 340 340 340 340 340 340
344 346 348 349 349 349 350 351 351 351 350 350 352 353 353 354 355 353 351 351 347 343 342 342 340 340 341 340 340 342 343 343 345 346 345 346 347 347 348 347 346 346 348 349 348 347 347 344 341 343 345 346 346 346 347 346 345 346 346 346 346 346 345 344 343 343 343 342 342 344 344 344 344 344 343 343 343 343 341 341 340 341 342 343 342
345 347 350 351 351 350 349 350 351 351 350 351 353 353 353 354 354 353 351 348 345 342 341 341 340 340 340 340 340 342 343 343 343 344 344 344 345 347 347 347 347 346 346 347 348 347 347 345 344 344 344 344 346 345 345 345 345 345 345 345 346 346 345 344 343 344 344 342 342 343 344 343 343 343 344 343 342 341 340 340 341 342 343 342 342
346 350 352 352 353 351 350 350 351 351 351 352 353 353 353 354 353 352 351 347 344 341 340 340 340 340 339 339 339 341 343 341 339 342 344 344 346 347 347 347 346 346 345 345 348 349 346 343 344 345 344 343 344 345 344 344 344 345 345 346 346 346 345 345 344 344 344 344 343 344 344 344 343 343 344 343 341 340 341 341 341 342 343 342 342
350 352 352 352 353 352 351 351 350 351 351 352 353 353 353 353 353 352 350 348 345 342 340 340 340 339 338 338 339 341 342 340 338 342 344 344 346 347 346 346 346 346 345 343 345 347 347 344 345 346 343 342 345 346 345 345 345 344 345 346 346 345 346 346 345 345 345 345 345 344 344 344 343 343 344 343 342 342 342 341 341 342 343 342 342
351 352 352 352 352 352 352 351 351 351 352 352 353 353 353 354 354 352 349 348 346 343 339 339 339 337 337 338 339 340 341 340 339 341 343 344 345 346 346 345 345 346 345 344 344 346 347 347 346 345 344 345 348 348 347 346 346 345 345 345 345 345 346 346 346 345 345 345 344 344 344 344 344 344 344 343 343 343 342 342 343 343 343 343 342
352 352 352 352 352 352 352 351 352 352 352 353 353 354 354 353 354 352 349 347 345 342 338 338 338 338 339 338 338 339 340 341 341 340 342 343 344 345 345 345 343 342 343 344 344 345 345 345 345 344 344 346 348 348 348 347 346 344 344 344 344 344 344 344 344 344 344 344 344 344 343 343 343 344 344 342 342 342 342 342 343 343 343 343 343
352 352 352 352 352 352 352 352 352 352 353 353 354 356 354 353 354 352 349 347 346 343 339 337 337 339 340 340 340 338 339 341 341 340 341 342 343 343 345 345 342 339 341 343 342 340 339 340 343 343 341 343 344 346 346 345 343 342 342 341 341 342 343 344 344 343 343 341 340 341 342 342 343 343 343 342 342 341 341 342 343 343 343 343 343
352 352 352 352 352 353 352 352 352 353 353 353 355 357 354 354 354 351 348 347 346 345 342 338 336 336 338 341 341 338 337 339 341 342 341 341 342 343 344 345 343 341 342 342 337 333 334 335 336 336 335 336 339 343 343 342 340 337 334 330 329 332 335 338 337 334 333 328 325 328 330 331 332 333 334 333 334 334 335 337 339 339 340 339 338
352 351 352 352 352 353 353 352 353 352 353 354 356 357 354 354 354 350 348 346 346 345 343 340 337 335 336 338 340 340 340 340 341 342 343 341 341 342 343 343 342 342 343 342 336 332 334 332 327 327 329 329 329 331 333 332 328 325 323 321 319 320 321 323 323 321 320 318 317 318 319 318 319 319 320 320 321 321 323 324 325 325 326 325 324
352 352 352 352 352 353 353 353 353 353 353 354 356 357 354 354 353 350 347 345 344 344 342 341 339 339 337 337 339 340 341 342 341 342 342 342 342 341 341 342 341 341 342 342 337 334 333 330 328 326 327 327 324 323 325 323 319 318 321 323 322 321 318 317 317 318 318 320 322 322 322 321 319 317 317 317 317 316 317 317 317 317 317 317 317
352 352 353 353 353 353 353 353 353 353 354 355 356 356 354 353 353 349 345 343 342 341 341 341 341 342 340 339 340 339 338 340 342 342 341 342 342 341 340 340 340 340 341 342 338 334 330 329 332 332 329 329 326 325 327 324 321 321 322 325 326 324 322 321 321 322 323 325 327 327 327 326 324 321 318 316 317 317 317 317 318 318 319 318 318
353 353 353 353 353 353 354 354 352 353 355 356 356 356 354 353 353 349 344 342 340 338 340 341 340 341 342 341 341 340 340 341 341 342 342 341 340 340 340 339 339 338 339 341 339 334 329 326 329 331 331 331 328 327 329 327 326 325 324 325 327 327 326 325 325 326 326 327 328 328 329 329 328 326 322 320 319 319 319 321 322 324 324 323 323
352 353 353 354 354 354 354 354 353 353 355 356 356 356 354 353 353 350 344 342 340 336 338 340 340 340 341 341 341 341 342 342 340 341 342 342 340 338 339 338 337 338 339 339 340 338 333 328 328 329 332 333 331 329 329 329 328 327 327 327 327 328 328 327 327 327 327 327 328 328 328 329 329 329 328 327 325 325 326 327 328 329 329 328 328
353 353 353 354 354 354 354 354 353 353 355 357 356 355 354 354 354 351 345 342 340 337 337 339 339 339 339 341 341 340 340 341 341 340 341 341 340 337 337 338 336 337 338 336 336 338 335 331 330 330 330 331 331 330 329 329 329 328 328 328 328 328 329 329 328 328 328 328 328 328 328 329 329 330 330 330 330 330 330 330 330 330 330 330 330
353 353 353 353 354 354 354 354 355 356 357 357 357 354 354 355 354 352 347 342 341 338 337 339 340 338 338 340 340 339 338 339 339 340 340 340 340 338 338 338 336 337 337 333 333 336 336 334 333 330 329 330 330 330 329 329 329 329 329 328 329 329 328 329 329 329 329 329 329 329 329 329 329 329 329 330 330 330 330 331 330 330 330 330 330
354 354 353 353 353 353 354 355 357 357 357 357 356 354 355 355 354 354 349 343 341 339 337 338 339 338 338 339 340 339 339 339 338 338 338 338 339 338 339 339 337 338 338 335 334 335 334 334 334 331 329 329 330 330 330 330 330 330 330 329 329 329 329 329 329 329 329 329 329 329 329 330 329 330 330 330 330 330 331 331 331 331 331 330 330
352 352 351 352 353 353 354 355 356 357 356 356 355 353 355 355 355 355 351 344 342 341 339 337 338 338 338 338 339 340 339 339 339 338 337 337 337 338 340 339 337 337 339 338 337 336 334 334 333 330 330 330 329 330 329 330 331 331 331 330 330 329 329 329 329 329 329 330 330 329 329 330 330 330 330 330 330 330 330 330 331 331 331 331 331
351 350 349 350 351 353 353 353 355 357 357 356 354 353 355 356 355 355 352 346 343 343 341 338 337 338 338 337 337 339 340 339 339 339 338 337 337 338 339 339 338 337 338 339 338 337 336 336 333 330 329 330 329 329 329 330 331 332 332 331 331 330 329 329 329 329 330 330 329 330 330 330 330 330 330 331 330 330 330 330 330 331 331 331 331
350 350 349 349 350 352 353 353 355 357 357 356 354 352 354 355 356 356 354 348 344 343 343 340 339 338 338 337 336 337 339 338 339 339 338 338 338 339 338 338 338 338 338 338 338 337 336 336 335 332 330 330 331 331 331 332 331 331 331 331 331 331 330 330 329 329 329 329 329 331 332 332 332 332 332 332 331 331 331 331 331 331 331 331 331
351 351 351 351 350 351 352 352 355 356 356 356 354 353 353 355 356 356 354 350 344 342 343 341 340 339 339 338 336 337 336 335 338 338 336 335 336 336 337 337 338 338 338 339 338 337 337 335 335 336 333 331 333 333 332 332 331 331 331 331 330 330 330 330 329 329 330 330 331 332 333 333 333 333 332 332 332 332 332 331 331 331 331 331 331
351 351 351 352 351 352 352 352 354 354 355 355 354 353 353 355 355 356 355 351 345 342 342 341 340 339 339 337 337 337 336 334 337 338 334 334 334 334 335 337 337 338 339 338 338 338 337 335 335 336 335 333 334 334 332 331 331 331 331 331 331 331 330 329 330 330 330 330 330 330 330 331 332 332 332 332 331 332 332 332 332 332 331 331 331
352 351 352 352 352 352 352 352 353 353 354 355 355 353 353 354 355 355 355 352 346 343 343 342 341 340 338 337 337 337 336 335 338 338 335 334 335 334 334 334 334 337 339 339 339 338 336 335 336 335 334 334 334 333 333 332 331 332 332 332 331 329 328 328 328 328 328 328 327 327 327 328 329 329 329 329 329 330 332 332 332 332 332 332 332
352 351 351 352 352 352 352 353 353 352 353 356 355 353 353 354 355 355 354 352 347 344 344 344 343 342 339 337 337 337 337 336 336 338 336 334 335 336 334 334 333 335 338 339 339 339 336 334 335 335 334 334 333 332 335 335 332 331 330 329 329 329 329 331 330 329 328 328 327 326 326 326 327 327 328 328 328 329 331 332 333 333 332 332 332
352 352 352 352 351 352 352 353 353 351 351 354 354 353 353 353 354 355 354 353 349 345 344 344 344 343 341 339 337 337 337 336 335 337 338 336 336 336 335 335 335 334 336 339 339 340 339 334 332 334 334 333 334 334 335 337 335 332 331 329 329 330 331 333 333 331 329 327 326 325 325 325 326 328 329 329 329 329 330 331 331 331 331 331 331
352 352 352 352 351 352 353 352 352 349 348 351 352 353 353 353 354 354 354 353 350 346 345 345 345 344 343 340 338 337 337 336 334 336 339 338 337 338 336 336 337 336 335 337 339 339 340 337 333 334 333 331 334 336 335 336 338 336 334 333 332 332 332 333 335 334 330 326 324 323 323 325 326 328 329 329 329 329 329 329 329 329 329 330 330
353 352 352 352 352 351 352 352 352 350 348 350 352 353 353 352 353 354 354 353 351 348 346 345 345 345 344 342 339 337 337 336 335 336 339 339 338 339 338 337 338 338 334 334 338 339 339 340 336 335 336 334 334 336 336 335 336 336 335 335 335 334 333 333 334 334 331 326 324 324 324 325 326 328 329 329 329 329 328 328 328 327 327 327 327
354 353 352 352 352 352 352 352 353 351 350 351 352 353 352 352 353 353 354 353 351 349 348 346 346 345 344 343 341 339 338 337 336 337 338 338 338 338 339 337 336 338 337 334 336 338 339 340 338 335 337 337 336 336 337 336 335 334 334 334 335 335 335 335 335 333 330 327 325 324 324 325 326 327 328 328 328 328 328 327 327 326 324 323 323
354 353 353 353 353 353 352 352 353 352 351 351 352 353 352 352 352 353 353 352 351 350 348 347 346 345 345 344 342 340 338 337 338 338 338 337 337 337 338 339 336 337 338 335 335 337 339 341 340 337 336 336 337 337 337 336 336 336 335 334 334 334 335 336 336 333 330 328 326 326 325 326 327 327 327 327 327 326 325 324 323 322 320 319 318
355 354 354 353 353 353 352 352 352 352 351 352 352 352 352 352 352 352 353 352 351 350 349 347 346 345 344 344 344 342 340 339 338 338 338 337 337 336 337 338 337 336 338 337 337 338 340 340 341 341 339 337 338 338 336 336 337 338 338 338 337 335 334 335 336 334 330 328 328 327 327 328 327 326 325 325 324 323 321 320 319 318 317 317 317
355 355 355 354 353 352 352 352 352 352 352 352 352 352 352 352 352 352 352 352 351 349 349 347 346 345 345 344 343 342 341 340 339 339 338 337 337 336 336 336 336 337 339 340 339 339 340 341 341 341 341 339 339 339 337 336 336 336 338 339 340 339 337 336 335 334 332 329 328 328 327 326 326 325 324 324 323 321 320 319 318 317 317 317 317
356 356 355 355 354 353 352 352 352 353 352 352 353 352 352 352 352 352 352 351 351 349 349 348 346 345 345 345 344 343 342 341 341 340 339 339 337 336 336 336 337 338 339 341 341 341 341 341 341 341 341 340 340 338 337 336 336 337 337 337 337 338 336 334 333 332 330 329 329 328 325 324 326 327 325 324 322 321 320 319 318 318 318 319 319
356 356 356 355 355 354 353 353 353 353 353 353 353 352 352 352 352 352 352 351 351 350 349 347 346 345 345 345 344 344 344 343 342 341 340 340 338 337 336 336 336 338 340 341 342 342 341 341 341 341 341 340 340 339 338 338 337 338 337 335 334 334 333 331 330 330 329 328 327 326 323 323 326 328 326 324 322 321 319 320 320 321 320 320 320
356 356 356 356 356 355 354 354 354 354 353 353 352 352 352 352 352 351 351 351 350 350 349 347 347 346 345 345 345 345 344 343 342 341 340 339 338 337 337 336 336 338 340 341 342 342 341 341 341 341 341 341 340 340 340 339 337 335 335 334 334 333 332 332 331 329 328 327 327 327 326 326 327 326 324 323 323 323 322 322 322 321 320 319 319
357 356 356 356 356 356 356 355 355 355 354 353 352 352 351 351 351 351 351 351 350 349 349 348 347 346 345 345 345 345 344 342 341 341 339 339 338 338 337 337 337 337 339 341 341 342 341 341 341 341 340 340 340 339 340 338 335 334 334 333 332 332 333 334 333 331 330 328 327 328 329 329 329 327 325 325 325 325 324 323 321 319 318 317 317
358 357 357 357 356 356 356 356 356 356 355 353 352 352 351 351 351 351 351 351 350 349 349 348 347 346 346 345 344 343 343 342 341 340 339 338 338 337 337 337 337 337 337 338 340 341 342 341 340 340 339 339 340 340 339 336 335 334 333 333 332 333 334 335 334 333 332 329 329 330 330 329 329 328 327 326 325 324 323 321 318 317 315 314 313
358 358 358 357 357 357 357 357 357 356 355 354 352 352 351 351 351 351 351 351 350 350 349 349 348 347 346 345 344 343 342 342 342 340 339 338 338 338 337 337 337 337 336 337 337 338 340 340 340 340 340 340 340 339 337 335 334 334 334 334 333 332 333 333 333 332 331 330 329 330 329 328 328 327 325 324 324 323 322 320 317 313 311 311 310
358 359 358 358 358 358 357 357 356 356 356 355 353 352 351 351 351 351 350 351 351 350 349 349 348 347 346 345 344 343 342 342 341 340 339 339 339 339 338 338 338 338 337 337 336 336 337 338 340 339 339 339 339 338 336 333 333 334 335 334 333 332 332 332 331 331 331 330 329 328 327 326 326 324 323 322 322 322 321 319 314 309 307 308 308
358 359 358 358 358 357 357 357 357 357 356 355 354 352 351 351 351 351 350 350 351 350 349 349 348 347 347 346 344 343 343 343 342 341 340 340 340 340 341 341 340 340 339 338 337 336 336 337 338 338 339 339 338 335 334 333 333 334 334 333 331 331 331 331 330 330 330 329 328 327 326 325 323 323 322 321 320 320 319 317 314 308 307 308 308
358 359 358 358 358 358 358 357 357 357 357 355 354 353 352 352 351 351 350 350 351 351 349 349 348 347 347 346 345 344 343 343 343 343 342 341 341 341 341 342 341 341 341 340 339 338 337 337 337 338 338 338 336 334 334 334 333 333 332 330 330 331 330 330 329 329 328 327 326 325 325 323 322 322 320 318 318 317 315 314 313 310 308 308 308
359 359 359 358 358 358 358 357 357 357 356 356 355 353 353 352 351 351 350 350 351 351 350 349 348 347 346 346 345 345 344 343 344 344 342 341 341 341 341 342 342 342 341 341 340 338 337 337 338 338 337 335 334 334 334 333 332 332 331 330 330 330 330 329 328 328 326 325 325 323 323 322 321 320 319 317 315 316 315 314 313 311 309 309 309
359 358 358 358 358 358 358 358 358 357 357 357 355 354 353 352 351 351 350 350 351 351 351 350 349 348 347 346 345 344 344 344 343 343 342 340 341 342 341 341 342 341 341 341 340 339 338 338 337 336 335 334 334 334 333 332 331 330 330 331 331 329 329 328 327 327 325 324 324 322 321 320 319 318 318 316 314 314 315 315 314 312 312 312 311
359 359 359 359 359 359 358 358 358 357 357 357 355 354 354 353 352 351 350 350 351 351 351 351 349 348 347 346 344 344 344 344 344 343 342 340 341 342 342 341 341 340 340 340 340 338 338 337 335 334 334 334 334 333 332 331 329 328 328 330 330 328 327 326 326 325 324 323 322 319 318 318 317 316 316 315 314 313 313 314 314 313 313 313 313
Wind_Speed
8 8 7 7 6 6 6 6 6 6 6 6 7 6 6 6 6 6 6 6 6 7 8 7 6 5 4 3 3 3 3 2 2 3 3 3 2 3 3 2 2 2 3 3 5 6 8 10 9 8 8 8 7 6 6 6 6 7 8 8 8 8 8 7 7 6 6 6 6 6 6 5 5 5 4 4 3 3 3 3 3 3 3 3 4
9 9 8 7 7 7 7 7 7 7 7 7 8 7 6 6 5 5 5 6 7 8 8 6 4 4 4 4 4 3 3 3 3 4 5 4 4 3 3 3 2 2 3 3 4 6 7 9 9 8 9 9 8 6 6 6 7 8 8 8 9 9 8 8 8 7 7 7 7 7 7 7 7 6 5 5 4 4 4 4 4 4 4 4 5
11 10 9 8 8 8 8 8 8 8 7 8 9 8 7 7 6 5 5 6 7 7 7 5 3 3 3 4 4 4 4 4 5 6 6 6 5 4 4 3 3 2 2 2 4 5 5 6 8 9 10 10 9 8 7 7 8 8 8 9 9 9 9 9 9 8 7 7 7 8 8 8 8 7 7 6 6 5 5 5 5 5 5 5 5
12 11 10 9 8 8 8 9 9 9 9 9 9 8 8 7 7 7 7 7 7 6 5 4 2 2 2 3 2 2 4 5 5 5 6 7 6 5 5 4 4 3 2 2 3 5 6 5 6 8 10 11 11 10 9 9 9 9 9 10 10 10 10 10 10 9 8 8 8 8 9 8 8 8 8 8 7 7 6 6 6 6 6 6 6
12 12 10 10 9 10 10 10 10 10 10 9 8 8 8 7 7 7 7 6 6 5 4 3 1 0 2 3 3 3 4 4 3 4 5 7 7 6 6 5 4 4 4 3 2 4 6 5 4 5 9 11 11 11 11 11 10 10 10 10 10 10 10 10 10 9 9 9 8 9 9 9 8 8 9 9 8 8 7 7 7 7 7 7 7
13 12 11 11 11 11 11 10 10 10 10 8 7 8 7 6 5 6 6 5 5 4 3 3 1 2 1 1 2 3 4 4 4 5 6 7 8 6 7 6 4 4 4 3 3 3 5 5 4 4 6 9 11 11 12 12 11 10 10 10 10 11 11 10 9 9 9 9 8 9 9 10 10 9 8 8 8 8 7 7 8 8 8 8 9
14 13 12 12 12 12 11 10 9 9 9 8 7 7 7 5 5 5 5 5 5 3 2 2 1 3 3 1 1 2 4 4 4 4 5 6 7 4 6 6 4 5 4 3 3 3 3 4 5 4 4 5 7 10 11 10 10 11 11 11 10 11 11 10 9 9 9 10 10 10 11 11 10 9 9 8 8 8 8 8 8 8 9 9 9
14 14 13 13 13 13 12 10 9 9 9 8 8 7 6 6 5 5 5 5 4 2 3 2 1 3 3 1 1 2 3 3 2 2 3 4 4 2 2 4 4 4 4 3 3 3 3 2 4 4 4 4 5 7 8 9 11 13 13 11 10 11 11 10 10 9 10 12 12 11 11 11 10 10 10 9 8 9 9 9 10 10 10 10 10
15 14 14 14 14 14 12 11 10 10 10 9 8 7 6 5 5 5 5 4 2 2 3 2 2 2 2 1 2 1 2 2 3 2 2 2 2 2 0 1 3 3 3 3 2 3 4 3 2 3 4 3 3 4 5 7 10 12 12 11 11 11 11 10 10 10 11 12 12 11 10 10 11 11 11 10 8 9 10 12 12 11 10 11 11
16 15 15 15 15 15 14 12 10 10 10 9 9 8 7 6 5 6 5 3 1 1 1 1 1 1 1 2 2 2 1 1 3 2 1 2 1 1 0 1 2 3 3 3 3 2 2 3 2 2 3 2 2 1 2 4 7 8 9 10 11 11 11 11 11 10 11 11 10 9 9 11 12 12 12 10 9 11 13 14 13 12 12 12 13
16 16 15 15 15 15 15 14 12 11 11 10 9 9 9 8 6 6 4 2 2 2 1 1 0 1 2 2 2 3 2 2 3 2 0 1 2 1 0 0 1 2 3 3 3 2 1 2 2 1 2 1 1 1 1 2 4 5 7 8 9 10 10 11 11 11 11 11 9 8 10 11 12 12 11 9 12 14 15 14 13 12 13 13 13
17 16 16 16 16 16 16 15 13 12 12 11 10 9 9 9 7 5 4 2 4 4 3 2 1 2 3 2 3 4 3 3 4 2 1 1 1 2 1 1 1 2 3 2 1 1 1 1 1 1 1 1 1 1 2 2 3 4 5 6 7 8 8 9 10 10 10 10 9 9 10 10 11 11 9 9 13 14 13 14 14 13 13 13 14
17 16 16 16 16 16 16 15 15 14 13 12 11 10 10 9 7 5 4 3 4 4 3 2 2 3 3 2 2 3 3 4 3 2 2 1 1 2 2 2 2 2 3 3 0 0 1 1 1 0 1 1 1 1 1 1 2 3 4 5 6 6 5 6 8 8 8 8 9 9 10 9 10 9 8 10 14 13 13 14 14 14 13 14 14
18 17 17 16 16 17 16 16 15 14 14 13 12 11 10 9 7 5 4 5 4 4 3 2 1 2 2 2 2 2 2 3 3 3 2 1 1 1 2 2 3 3 3 3 2 1 1 2 1 1 1 0 0 1 1 1 1 2 2 3 4 3 3 3 5 7 7 8 8 8 7 8 9 8 8 10 12 11 11 12 12 12 12 13 14
19 18 17 16 17 17 17 16 15 15 14 14 13 10 9 9 8 5 5 6 5 4 4 2 1 0 0 1 1 2 2 3 3 3 3 2 1 1 1 2 2 3 3 3 3 2 2 2 2 1 1 1 0 1 1 1 0 1 1 1 1 1 1 1 2 4 4 5 4 4 4 5 5 4 5 7 7 6 6 8 9 9 9 11 12
19 18 18 17 17 17 17 16 15 15 15 15 13 10 9 9 7 7 7 6 4 4 4 4 3 2 1 0 0 2 2 3 4 3 3 4 2 1 1 1 1 2 3 3 4 3 3 3 2 2 2 2 1 1 2 2 2 2 2 1 2 2 2 2 3 3 2 0 1 0 1 2 2 1 2 3 4 3 3 4 5 5 6 7 7
20 19 19 18 18 17 17 17 16 16 16 16 14 10 9 8 7 8 10 8 5 4 3 5 5 3 2 1 1 2 1 2 4 2 2 4 3 2 2 1 0 1 1 2 4 4 3 3 3 4 3 4 3 2 2 3 3 3 4 4 4 4 4 4 4 5 4 3 3 3 3 2 1 1 1 2 2 3 3 3 3 4 5 6 7
21 20 20 19 19 18 17 17 17 17 17 16 13 10 9 8 8 10 11 10 7 4 3 5 6 4 4 3 2 2 0 2 3 2 2 3 3 3 3 3 3 2 1 1 3 3 3 4 4 4 5 5 6 5 4 5 5 6 6 7 6 6 5 5 5 6 6 6 5 5 4 4 3 3 2 1 1 0 1 1 1 2 3 4 5
22 21 21 20 20 19 18 18 18 18 18 17 14 12 11 10 10 10 10 10 8 6 4 5 5 4 4 4 4 4 3 3 3 2 2 3 3 3 3 4 4 3 2 1 0 1 2 3 4 4 5 6 6 6 5 6 7 7 8 8 8 7 7 6 6 7 6 6 6 6 5 4 3 2 2 2 2 2 1 1 1 1 2 2 3
23 23 22 21 21 20 20 18 19 19 17 16 14 13 13 12 10 10 11 11 9 8 6 5 5 5 5 4 4 5 6 5 4 3 3 2 3 4 4 4 4 4 4 3 2 2 1 1 1 2 2 3 4 5 5 5 6 6 6 6 7 7 7 6 6 6 6 6 6 7 6 6 5 3 2 1 0 0 0 1 1 2 3 3 4
24 24 23 23 22 22 21 20 20 19 15 13 13 13 15 13 12 12 12 12 10 9 7 7 7 6 5 5 4 3 4 4 4 4 3 3 3 4 5 5 5 5 5 5 5 4 3 2 1 0 0 1 1 2 2 3 3 3 3 3 4 5 5 5 5 5 5 5 5 5 6 6 6 5 4 2 2 1 1 2 2 3 4 4 5
26 26 25 24 24 23 23 21 21 19 15 13 13 15 16 14 13 13 13 12 11 10 9 8 8 7 6 5 5 3 3 4 5 5 3 3 3 4 6 6 5 5 6 6 6 6 6 5 3 2 2 2 1 1 1 1 1 0 0 0 1 2 2 3 3 3 3 3 3 3 4 4 5 5 4 3 3 3 3 3 4 4 5 5 6
27 27 27 26 25 25 24 23 22 19 15 13 13 16 17 15 14 13 14 13 11 10 10 9 9 8 7 7 6 5 5 5 5 6 4 4 3 4 5 5 5 4 5 7 9 9 8 7 6 5 4 3 4 4 4 4 4 4 3 3 3 3 2 2 2 2 2 3 3 3 3 3 4 4 4 4 3 4 4 5 6 6 7 7 7
27 27 28 27 27 26 25 23 20 16 14 12 13 17 18 16 15 14 15 15 13 11 11 11 10 9 8 8 8 7 6 5 5 5 5 4 4 5 4 4 5 6 6 7 8 9 11 10 8 7 6 5 5 6 6 6 7 6 6 7 6 6 5 4 3 3 3 4 4 4 5 5 5 5 5 5 5 5 5 6 7 8 8 8 9
29 29 29 29 28 28 25 20 16 14 14 14 15 18 18 17 16 15 16 16 15 13 12 12 11 10 9 8 8 7 7 6 5 4 4 4 4 5 4 3 5 6 5 7 7 8 11 12 12 11 10 8 8 8 8 9 10 9 9 10 10 9 8 7 6 5 6 6 7 8 8 8 8 8 8 7 7 7 7 7 8 9 9 9 9
31 31 31 30 30 29 26 22 17 15 15 15 17 19 19 18 17 16 17 17 16 15 14 13 12 11 10 9 9 8 8 7 6 6 5 5 5 5 3 3 5 5 4 5 6 7 8 10 13 14 13 12 11 11 11 11 12 13 12 12 12 11 10 10 9 8 8 8 9 10 11 12 12 12 11 11 11 10 10 9 9 10 10 10 11
33 33 32 31 31 29 28 27 20 16 15 17 19 21 19 19 18 17 17 18 17 17 16 15 15 14 12 11 10 9 9 9 8 7 7 6 6 6 5 4 4 4 4 4 5 7 8 7 9 13 14 14 14 13 13 12 13 13 13 13 13 12 11 11 11 10 10 10 11 12 13 14 14 14 14 14 14 13 13 12 12 12 11 12 12
34 34 33 32 32 30 30 29 21 16 16 18 21 23 21 20 20 19 19 19 18 18 17 17 17 16 15 14 12 11 10 11 10 8 8 8 7 7 7 6 4 3 3 3 5 7 8 7 7 10 12 12 11 11 10 9 10 11 11 12 12 12 10 10 11 11 12 12 13 14 15 16 16 15 16 16 15 15 15 14 14 13 13 13 13
34 33 33 32 32 31 30 29 23 17 16 18 22 24 22 21 21 20 20 20 19 19 18 18 18 16 16 16 15 13 12 13 12 10 10 10 10 9 9 9 7 4 3 3 4 5 6 7 7 7 10 10 8 8 8 8 9 9 8 8 9 8 8 8 9 11 12 14 15 16 16 16 17 16 16 16 16 16 16 15 15 14 14 14 14
34 33 33 32 32 31 30 30 26 20 18 18 23 26 24 23 22 21 21 21 20 20 19 18 18 17 17 17 17 15 14 14 12 11 12 11 10 10 10 10 10 8 5 4 4 4 5 6 6 6 8 9 8 8 8 9 9 9 7 7 6 6 6 8 9 10 12 13 14 15 15 15 16 16 16 17 17 17 16 16 15 15 15 15 15
34 34 33 32 32 32 31 30 27 23 20 18 23 27 25 24 24 22 23 23 22 22 20 19 19 19 18 18 18 17 15 15 13 12 13 13 12 10 10 11 12 11 8 6 4 4 5 5 5 6 8 9 9 9 9 9 10 9 7 7 6 6 6 7 9 10 11 12 12 12 13 13 14 15 15 16 17 17 17 16 15 15 15 16 16
36 35 34 33 33 32 32 30 28 26 22 19 22 28 27 26 26 24 24 24 24 24 23 21 20 20 19 19 20 19 17 16 15 13 14 15 14 12 10 10 11 12 10 8 6 5 6 6 5 6 9 10 10 10 9 8 9 8 7 7 5 5 5 6 8 10 10 11 12 12 12 13 13 14 15 15 15 15 15 16 16 15 15 16 16
37 36 35 35 35 34 32 31 29 29 27 23 25 29 28 28 27 26 26 26 26 26 25 24 23 21 20 20 20 20 18 17 16 15 15 16 16 14 13 12 11 13 12 10 9 8 7 8 8 8 10 11 10 10 9 8 8 8 7 7 6 5 6 7 8 11 12 12 12 13 13 13 14 14 13 13 13 14 14 14 15 15 15 15 15
38 37 37 37 36 35 34 33 33 33 31 29 30 30 29 29 29 28 28 27 27 27 27 26 25 23 22 21 20 20 19 18 18 16 15 16 16 15 15 14 12 13 14 12 10 9 8 8 9 9 11 13 12 10 10 9 8 8 8 8 7 7 7 7 8 10 12 13 13 13 14 14 14 13 12 12 12 12 12 12 13 14 14 15 15
38 39 39 38 38 37 36 35 35 35 34 33 32 32 31 31 31 30 30 29 29 29 29 28 27 25 23 22 20 20 20 19 19 18 17 16 17 16 15 16 14 14 16 15 12 10 9 8 9 9 10 12 12 10 10 9 9 10 9 9 8 8 9 9 9 10 12 13 13 13 14 13 13 12 11 11 11 11 11 12 13 14 14 15 16
37 40 40 39 38 38 38 37 35 35 36 35 33 33 33 32 32 32 31 31 30 30 30 29 28 27 25 23 21 20 21 21 21 21 20 19 19 18 17 18 18 15 16 17 16 12 10 9 10 11 10 10 11 10 9 9 10 11 11 10 10 10 10 10 10 11 12 12 13 13 13 12 11 12 12 12 12 12 13 14 14 15 15 16 17
36 39 40 40 39 39 39 39 36 36 37 37 35 35 34 34 34 33 33 32 31 31 31 30 29 28 27 25 24 23 23 23 22 22 23 23 22 22 20 19 20 18 17 18 18 16 13 10 10 11 12 11 11 11 11 10 10 11 12 12 12 12 12 9 8 10 11 11 11 11 11 11 11 12 12 13 12 12 13 14 15 17 18 18 18
36 36 39 41 41 41 41 41 39 39 39 38 37 37 35 35 34 34 34 33 32 32 32 31 30 29 28 26 25 26 26 26 25 25 25 25 25 25 23 22 22 21 18 19 19 18 16 13 11 10 12 12 12 12 13 12 10 10 10 10 11 12 12 9 6 7 9 9 9 10 10 10 10 11 11 10 11 12 14 16 17 18 18 18 17
35 33 36 40 42 43 43 42 41 40 40 39 38 38 36 36 35 35 34 34 33 33 32 32 30 29 29 28 27 28 29 29 28 27 27 27 27 27 27 25 24 22 19 17 18 18 16 15 14 12 11 12 12 12 13 13 12 12 10 9 8 8 9 8 6 6 7 9 9 9 10 10 10 11 11 11 13 15 15 16 17 18 17 16 16
35 34 35 38 41 43 43 43 42 40 40 40 39 39 38 37 36 35 35 35 33 33 33 32 30 29 29 28 28 29 31 31 30 29 29 29 28 28 27 26 25 22 19 16 16 16 16 15 14 13 12 12 12 13 13 13 12 10 9 9 10 9 9 10 10 10 9 8 8 8 11 12 11 11 13 15 17 17 16 15 16 16 16 16 17
35 34 34 35 39 41 42 42 41 40 40 41 40 39 39 38 37 36 36 36 35 34 34 31 30 30 30 29 29 30 32 31 30 30 29 28 27 27 27 27 26 23 20 17 15 15 15 15 14 13 13 12 11 12 12 12 11 11 11 12 13 14 13 13 14 13 10 9 8 8 11 13 12 12 14 17 18 18 17 15 14 14 15 16 17
35 35 35 35 35 37 38 39 39 39 40 42 42 40 39 39 39 38 37 37 37 36 34 31 29 30 31 30 30 31 31 31 29 29 28 27 25 25 26 27 26 25 21 18 16 16 16 15 14 13 13 12 11 12 12 12 13 14 13 13 14 14 12 11 12 12 11 10 8 8 11 13 13 14 16 17 17 15 13 13 12 13 14 15 15
36 36 37 35 33 32 33 36 37 37 40 43 42 41 41 40 38 39 39 38 38 37 35 32 31 31 30 30 30 31 30 29 29 28 27 25 24 24 25 26 27 27 24 20 18 17 16 15 14 13 13 12 12 11 11 11 13 14 14 14 14 12 8 6 7 9 9 9 6 8 11 12 13 14 15 15 14 12 11 13 14 15 15 15 15
36 35 35 35 34 32 30 32 34 35 39 43 42 42 42 41 40 39 38 38 38 37 35 34 33 32 30 28 28 30 30 29 28 28 26 25 23 22 23 25 27 28 27 24 21 18 16 16 15 14 14 13 12 12 12 13 14 15 15 14 13 10 7 7 7 7 7 7 6 9 11 11 11 13 13 13 13 12 13 16 17 16 16 16 17
35 33 34 34 34 32 31 31 32 32 35 40 42 43 42 42 42 40 38 38 38 36 36 36 35 32 29 28 27 28 29 28 27 27 27 25 22 21 21 23 26 29 29 28 26 22 18 16 16 16 15 14 14 15 16 16 15 13 12 11 11 9 8 8 9 9 8 8 8 9 12 12 11 11 12 13 13 13 15 16 17 18 17 17 17
33 33 35 34 33 33 33 31 31 31 33 37 41 43 43 42 42 41 40 38 35 35 37 37 35 33 31 30 28 28 27 27 26 26 26 25 21 18 19 21 24 27 28 28 27 26 22 19 17 17 17 16 17 17 17 17 14 12 10 9 9 9 8 9 9 9 8 8 7 8 11 11 9 9 12 12 13 14 15 16 17 18 16 14 14
33 35 35 33 34 35 34 33 33 32 33 36 39 41 42 43 42 41 41 38 31 31 36 37 35 33 32 31 29 28 28 27 27 26 25 24 21 16 16 18 20 22 24 25 25 26 25 23 21 19 18 17 18 17 17 15 12 10 9 9 7 7 8 8 8 8 8 8 7 6 8 9 8 9 11 11 12 14 15 15 17 16 13 11 12
34 34 33 33 35 35 34 35 35 33 33 33 36 39 40 41 41 40 42 40 31 28 33 36 34 32 31 30 28 27 28 28 26 25 24 22 19 16 15 17 18 19 20 21 23 24 23 23 22 21 19 18 17 16 15 13 10 8 8 8 7 6 6 7 8 9 8 7 6 5 7 9 9 9 11 12 13 15 15 14 14 13 12 12 13
33 33 33 34 36 35 35 36 36 34 32 31 33 36 38 39 39 40 43 40 31 27 30 33 32 31 30 30 27 25 28 29 27 24 23 22 19 15 15 17 17 18 17 18 20 21 20 20 20 19 18 17 16 15 14 14 11 8 7 7 7 7 8 8 8 8 6 6 5 5 6 9 9 9 11 12 13 15 15 13 12 13 16 16 16
33 34 34 35 36 35 35 36 37 34 32 33 34 34 36 39 40 41 43 39 31 27 27 27 26 25 25 28 28 27 29 31 28 24 22 23 20 15 16 18 17 17 16 14 15 18 18 18 18 18 16 15 14 14 13 13 12 10 10 9 7 7 8 8 7 6 6 6 5 4 5 8 9 10 10 12 13 13 12 11 12 14 16 16 17
32 32 33 34 35 36 36 37 40 38 33 34 37 36 36 39 40 41 42 37 30 27 26 25 24 21 20 24 28 31 31 29 28 24 23 25 21 15 17 19 18 18 17 14 14 17 19 20 19 17 16 14 14 13 13 13 12 11 11 10 7 7 7 7 6 5 5 4 4 3 5 8 9 9 9 11 11 10 10 11 14 15 15 16 17
Wind_Direction
242 241 242 244 247 245 249 262 273 289 307 318 320 319 318 317 319 328 330 329 334 333 330 323 307 304 299 296 303 308 320 323 326 332 331 337 340 305 278 269 295 309 293 272 263 251 232 234 238 231 225 219 222 225 221 218 212 216 213 204 201 202 205 202 202 203 203 207 208 208 208 210 211 213 217 222 224 231 242 250 257 264 267 268 279
241 240 242 246 248 248 255 266 276 290 304 312 313 312 309 309 315 317 322 324 328 329 327 321 303 290 283 280 287 294 305 309 308 313 316 314 311 297 279 267 265 299 310 297 279 268 247 239 241 237 231 223 220 223 225 221 216 222 222 213 211 210 212 211 209 209 210 215 220 221 221 223 224 224 228 233 235 241 250 258 260 264 270 271 280
239 238 241 246 250 254 261 269 280 292 300 307 309 307 302 303 308 307 315 326 330 329 327 323 310 290 290 292 286 283 294 300 293 294 301 305 295 274 271 270 262 285 308 301 292 287 277 259 249 239 232 227 223 222 224 224 219 223 225 221 219 215 215 217 215 215 218 223 229 234 238 237 235 234 236 238 240 248 252 258 263 265 272 274 281
238 237 240 245 250 256 263 269 280 292 296 299 300 297 296 298 303 305 315 328 332 328 324 325 315 305 343 359 340 304 306 309 295 287 299 312 300 263 252 262 262 272 288 294 305 303 301 290 265 242 233 230 226 223 224 227 222 222 228 225 222 220 221 222 218 217 223 230 235 240 247 248 246 244 244 243 241 246 251 258 265 268 274 277 282
239 239 241 245 249 253 262 271 283 296 298 292 288 289 291 293 299 306 316 325 326 319 324 332 303 279 45 44 22 341 320 319 314 310 314 321 313 266 238 244 255 264 273 286 310 312 302 293 274 241 235 236 235 229 226 230 226 222 228 227 225 228 230 230 225 222 225 234 240 242 247 252 255 253 251 253 252 251 252 257 264 268 272 274 277
240 242 245 246 249 254 263 275 288 300 300 288 280 284 285 287 296 307 315 318 316 318 335 334 265 184 128 58 17 342 321 307 304 314 314 315 317 280 234 232 248 264 274 288 306 316 300 284 271 246 241 242 239 235 230 233 232 226 231 232 229 233 236 238 236 233 232 237 245 247 246 246 251 254 253 257 259 258 258 259 262 265 268 271 274
241 244 247 248 250 256 265 276 289 298 297 284 274 278 280 282 297 309 317 314 315 340 11 344 254 185 166 108 346 332 329 312 298 308 312 319 330 301 234 226 242 265 277 286 298 314 309 285 269 260 256 250 242 236 234 237 237 231 234 236 232 236 239 241 243 243 244 244 244 249 252 251 252 257 260 261 262 262 260 257 256 256 260 264 269
241 244 247 248 250 255 264 274 286 291 289 278 270 273 274 280 298 309 318 314 314 29 53 40 141 177 173 169 293 315 337 339 328 319 324 339 352 343 231 223 242 262 275 282 297 324 336 301 261 263 268 261 245 237 232 234 237 234 235 236 234 239 242 240 239 239 243 246 245 250 261 266 262 257 256 257 260 263 261 259 255 250 252 257 262
240 243 246 247 250 255 262 271 281 284 281 273 266 268 273 282 298 308 311 304 290 83 77 79 114 171 186 253 264 285 331 351 349 333 342 354 6 27 67 235 254 261 274 285 292 318 345 341 273 267 280 269 236 233 232 231 238 239 237 238 240 246 248 243 237 234 237 241 243 250 261 266 261 256 256 256 260 264 263 262 260 258 261 264 264
240 241 244 247 251 255 259 268 276 276 274 270 262 266 277 282 295 305 302 282 225 122 97 101 99 180 242 290 251 233 261 317 334 334 10 28 38 60 18 267 265 263 266 279 285 291 338 357 331 279 286 273 203 198 235 229 235 238 237 239 244 248 248 244 240 237 239 240 244 253 260 260 259 261 264 265 264 261 256 256 258 263 269 269 269
239 241 243 247 251 255 258 264 270 270 270 265 261 268 277 282 295 301 291 251 190 171 185 210 272 274 284 304 252 224 233 278 311 312 26 43 50 68 178 231 271 286 290 285 287 289 305 0 0 308 298 278 172 166 207 216 229 238 235 236 243 246 245 245 243 240 243 246 247 254 259 259 263 267 270 266 259 257 257 259 261 265 268 269 270
240 241 244 248 252 257 259 262 266 267 267 263 264 271 276 284 294 290 275 230 196 196 215 231 265 279 276 283 253 227 232 275 300 276 194 51 45 58 80 90 36 351 340 322 274 260 301 345 13 327 312 277 187 193 207 217 244 250 238 234 245 250 248 245 245 244 244 249 249 251 257 260 265 272 275 265 260 261 264 267 266 265 269 270 267
240 242 246 251 253 258 260 261 264 264 265 265 268 275 275 279 284 280 265 223 202 205 209 211 257 278 277 265 240 223 229 257 280 258 210 166 53 55 71 66 44 31 14 15 39 180 20 14 26 349 313 295 222 236 240 241 263 261 243 238 248 252 248 237 238 242 242 246 247 249 254 258 259 261 262 262 264 268 270 267 263 264 270 272 269
240 243 247 251 254 259 260 261 264 264 265 266 269 271 268 270 276 274 246 215 205 203 197 201 258 295 299 266 207 178 193 217 246 242 218 201 169 101 77 64 57 59 49 46 47 36 36 36 38 17 326 327 168 242 271 331 301 281 252 243 246 250 253 226 219 230 237 240 241 247 258 261 259 257 257 263 267 271 272 267 263 266 272 272 273
239 242 246 250 255 259 261 263 264 263 263 264 267 265 257 262 267 258 227 212 207 194 192 212 216 125 260 248 217 184 170 176 202 226 225 218 208 168 109 85 69 62 58 52 41 25 13 26 53 40 16 59 173 211 188 134 279 349 345 291 261 260 325 119 176 205 226 242 242 249 265 265 264 257 255 268 275 275 272 268 266 269 271 270 273
238 241 245 250 256 259 261 262 263 263 262 262 263 258 253 256 257 244 224 218 220 200 196 217 213 189 197 189 142 218 209 179 185 201 226 222 214 213 180 117 70 47 55 45 27 18 9 20 47 51 60 90 108 166 138 113 93 74 56 62 94 88 79 87 101 124 141 281 322 11 228 248 266 233 226 268 287 292 291 283 273 272 271 272 276
238 240 244 251 257 258 258 260 261 262 261 261 261 256 253 251 250 242 229 231 245 224 200 215 216 203 196 187 166 220 216 180 187 190 219 224 221 224 221 198 227 9 25 18 15 23 36 41 47 54 69 92 103 115 120 112 103 101 99 97 98 96 97 108 111 114 114 102 91 99 113 125 132 155 185 230 264 281 285 282 270 271 272 276 282
238 241 245 250 255 256 256 258 260 261 261 261 259 254 251 247 250 244 231 235 244 233 206 207 213 204 198 225 269 285 86 167 196 195 191 217 234 230 222 228 246 280 297 347 17 36 64 65 62 64 66 79 102 121 130 134 131 123 112 98 94 96 101 107 109 109 107 101 97 93 93 97 104 105 105 123 132 133 265 266 271 278 276 283 292
238 241 244 248 251 252 254 257 259 260 261 260 256 253 249 246 250 244 235 238 236 231 221 200 202 199 201 224 254 266 248 210 217 227 206 209 220 229 229 232 243 248 239 240 55 75 87 76 68 64 60 66 89 111 126 135 132 123 111 97 90 92 98 103 104 107 107 101 90 80 75 71 74 85 88 88 84 81 74 51 39 31 9 344 344
237 241 243 246 249 250 253 256 259 259 257 257 254 252 250 246 245 238 232 236 234 232 226 208 203 188 189 210 233 252 245 228 230 241 249 225 199 212 222 223 233 231 216 216 214 206 180 117 85 61 58 61 78 100 116 125 128 128 119 102 90 88 95 101 103 105 102 94 83 73 66 59 55 55 48 36 0 339 342 347 349 351 348 340 336
237 240 242 245 247 249 251 254 258 257 252 250 249 251 251 245 241 235 227 230 235 235 229 219 216 197 182 191 200 233 234 220 219 221 239 243 202 199 209 215 226 225 215 216 222 227 233 225 197 274 352 18 68 96 111 116 120 126 124 108 90 80 82 89 93 94 88 78 68 59 54 51 51 49 44 31 2 343 333 333 338 338 336 334 327
237 239 241 244 246 248 250 252 256 255 249 244 244 250 253 245 241 237 228 229 235 237 233 224 222 216 203 192 185 198 208 208 211 206 214 235 224 216 216 220 226 216 207 215 221 226 235 241 247 257 266 268 270 276 273 274 276 215 133 62 63 53 57 63 65 64 58 49 41 31 28 29 32 36 36 30 15 355 341 335 333 333 333 332 330
235 238 240 242 244 246 247 250 253 251 244 240 242 251 253 246 242 236 228 229 234 236 234 230 230 230 220 208 203 208 214 223 225 216 217 223 227 240 231 233 246 231 212 223 228 229 235 240 245 248 251 258 266 272 275 277 279 278 283 290 301 309 326 347 357 9 9 1 359 353 350 351 353 359 3 1 354 341 332 325 323 322 321 319 318
233 235 238 239 240 242 244 245 245 241 236 233 240 250 251 246 243 236 228 229 231 232 232 231 234 234 227 219 218 221 221 230 235 226 232 235 238 254 244 234 253 246 237 243 241 237 237 238 242 242 244 251 260 268 274 279 280 280 283 284 286 289 291 297 304 316 326 328 331 332 330 328 325 326 325 326 326 322 319 317 316 315 313 310 306
228 232 235 236 237 239 239 237 234 233 233 233 241 249 249 245 243 238 231 230 231 231 231 233 235 234 229 221 220 224 221 223 227 222 229 231 232 244 237 228 250 250 249 254 254 251 244 241 241 241 242 248 256 266 274 282 284 282 283 282 279 276 275 278 283 294 305 311 314 316 316 316 314 312 309 306 305 304 304 304 305 306 306 304 301
227 230 233 234 237 238 237 237 233 233 235 236 243 249 247 244 243 240 234 233 233 233 233 235 238 237 233 225 221 223 223 219 218 220 223 223 226 229 207 208 244 254 263 259 257 260 252 245 245 245 245 249 255 265 273 280 284 281 277 273 270 266 265 269 272 280 290 300 307 308 307 306 304 303 301 298 296 293 292 293 295 298 298 297 296
229 232 233 234 237 237 238 240 236 232 234 236 243 247 245 242 243 241 236 234 234 235 235 236 239 240 238 234 227 223 224 221 217 223 228 227 228 221 203 201 226 240 252 256 256 257 254 254 256 253 250 252 259 267 272 275 279 280 273 264 262 260 258 261 264 266 272 281 291 295 296 295 293 293 293 293 291 288 287 286 287 290 291 291 290
231 233 234 235 236 236 238 239 235 230 232 236 242 245 243 241 242 239 236 234 235 236 237 237 240 241 240 240 235 228 228 227 222 224 228 226 224 216 209 213 220 232 239 239 248 251 248 251 260 260 256 257 261 263 265 268 273 278 273 260 258 258 255 254 255 259 266 276 286 290 292 291 289 288 287 286 286 284 281 279 279 282 285 285 285
232 233 234 235 236 236 237 238 234 229 229 233 240 244 242 241 241 240 236 234 235 236 237 239 240 239 237 239 238 234 235 235 229 228 229 224 222 219 216 218 223 234 248 244 248 251 244 242 251 261 257 252 251 250 252 260 267 270 267 258 257 258 260 262 265 272 279 284 289 291 291 291 290 288 286 285 283 281 278 274 271 273 276 278 278
231 232 234 234 236 236 236 237 235 232 229 231 239 243 241 239 240 240 238 235 234 235 237 239 240 240 238 240 240 237 240 240 230 227 230 224 221 223 222 222 223 228 241 254 258 251 245 244 247 253 249 239 235 242 249 257 261 260 260 263 268 273 281 286 288 289 289 290 290 290 289 287 286 286 286 286 285 284 281 276 271 269 271 273 274
230 232 233 233 235 236 236 236 233 232 230 229 237 241 239 238 238 237 236 234 232 233 237 239 240 242 241 240 240 239 242 241 231 227 229 224 221 224 226 227 225 226 232 242 252 240 233 246 250 241 237 229 229 240 247 250 252 252 257 263 269 280 291 298 299 297 297 297 296 294 292 289 288 288 289 290 289 286 282 280 277 274 274 275 275
229 232 232 233 234 235 235 233 229 230 229 224 234 239 237 236 236 235 235 234 231 231 235 238 240 243 242 239 240 242 244 243 235 230 227 223 222 222 225 228 227 227 224 226 241 241 232 244 249 236 230 228 233 241 241 240 242 242 243 242 245 269 289 298 306 309 308 304 301 299 296 294 294 294 295 295 294 290 285 282 281 281 281 280 278
228 229 231 233 235 235 234 231 228 230 230 228 234 237 236 235 235 234 235 234 231 230 233 237 239 241 241 239 239 242 244 243 238 232 225 223 223 222 224 224 225 228 222 218 234 246 243 245 245 239 232 230 236 242 238 233 233 230 228 229 239 267 286 296 307 312 312 309 305 301 299 299 301 301 298 297 297 296 292 288 285 285 285 284 281
228 229 230 232 234 235 234 232 230 230 233 235 236 235 234 234 234 233 234 233 230 229 231 234 236 238 239 238 238 240 241 241 239 233 225 223 222 220 222 223 221 226 226 222 229 243 247 242 239 240 236 235 239 242 238 231 226 226 228 236 250 269 284 294 303 309 313 312 308 305 303 301 303 304 301 298 298 298 296 293 292 291 290 288 286
227 228 230 231 233 234 233 232 231 231 233 235 234 234 234 234 233 233 234 233 231 229 230 232 233 234 236 236 235 236 239 239 237 234 228 225 224 222 223 225 223 226 231 230 228 235 243 238 233 235 231 232 238 239 237 234 230 231 236 245 257 267 281 294 302 307 311 311 309 307 305 301 301 303 301 297 295 294 294 294 294 291 288 286 285
224 228 230 230 231 233 232 231 230 230 232 232 232 233 234 234 233 233 234 234 232 231 232 233 232 231 232 232 231 232 237 238 235 234 231 229 229 226 225 227 227 226 231 234 231 229 236 236 237 239 231 229 235 236 238 240 241 244 248 256 263 270 280 289 299 307 310 309 307 306 302 298 295 294 294 293 291 291 292 292 291 289 286 284 282
221 226 228 228 229 231 231 231 229 229 231 231 231 231 232 233 233 233 234 235 234 234 235 234 232 231 230 230 230 232 236 235 232 232 232 232 232 229 225 225 228 227 228 232 230 227 230 233 238 244 242 236 237 243 247 249 251 254 258 263 268 274 281 283 289 303 311 311 310 310 307 302 296 292 290 290 292 293 292 289 287 287 286 284 283
218 222 225 226 227 229 231 231 230 230 231 230 230 230 231 232 232 232 234 235 236 236 236 235 234 232 231 230 230 232 235 234 232 232 234 234 232 229 226 225 227 228 226 227 227 225 227 232 237 242 243 240 239 246 253 254 254 257 261 266 270 275 283 284 285 301 310 315 320 319 315 310 303 296 292 292 296 298 296 292 289 287 285 284 284
215 216 220 225 227 229 230 231 230 230 230 229 230 230 229 230 231 231 232 233 235 235 236 235 233 232 232 231 230 232 235 236 234 234 236 235 232 230 228 227 228 228 226 224 223 222 224 229 235 239 240 242 243 247 256 259 259 260 262 266 267 270 280 286 294 303 308 319 331 328 319 312 302 297 298 300 303 304 300 295 290 287 286 285 286
214 215 218 222 226 228 229 230 230 230 230 229 229 228 228 229 230 231 231 232 232 234 235 234 231 231 232 231 232 235 238 238 236 235 237 237 234 230 229 228 227 227 226 224 220 219 222 227 233 239 239 240 242 248 255 257 255 252 253 260 266 268 272 282 295 302 305 316 325 320 314 309 299 298 304 307 309 309 307 299 290 285 284 283 284
214 215 217 219 223 225 227 228 228 228 229 229 228 227 226 227 228 230 231 231 231 232 233 231 229 231 232 231 233 238 242 242 240 238 238 240 238 233 232 230 227 225 226 225 221 219 222 226 230 237 240 235 233 240 246 246 245 246 249 257 266 270 275 285 297 302 305 310 311 304 302 297 288 291 299 303 307 309 306 300 291 284 282 282 281
215 215 217 218 219 221 223 225 226 226 227 229 229 227 226 226 227 228 229 230 231 232 231 227 227 230 232 233 236 241 244 244 243 240 237 238 239 238 238 236 231 227 223 222 223 222 222 227 230 235 239 237 235 239 242 245 250 253 254 257 260 267 277 291 300 300 299 301 299 286 286 285 282 290 298 300 303 303 298 292 287 285 286 286 285
216 217 218 218 217 218 219 222 223 223 226 229 229 228 228 227 226 227 228 230 230 230 229 226 226 229 231 232 235 240 242 242 242 240 236 233 235 237 239 239 239 235 228 223 224 223 223 229 232 235 240 245 247 244 237 240 251 256 256 253 253 260 270 279 286 287 287 292 284 268 277 283 286 292 297 299 301 298 291 289 290 293 295 295 295
215 216 217 219 219 219 218 220 222 222 227 230 229 228 228 227 225 226 227 229 229 228 227 227 228 229 229 228 230 235 238 239 239 238 233 230 232 235 236 238 241 241 238 233 231 227 224 227 231 235 241 246 246 238 233 241 251 254 252 249 250 256 255 253 262 270 274 281 274 270 280 287 288 290 294 300 302 299 294 294 296 299 300 298 297
214 215 217 219 220 220 218 219 221 222 227 231 230 228 228 228 227 225 225 228 229 226 226 228 228 228 225 223 224 229 234 237 238 235 231 231 235 239 238 238 241 243 242 241 239 236 231 230 233 236 237 239 240 242 249 255 253 247 244 245 249 251 249 255 266 273 275 276 273 277 284 287 287 290 295 301 302 298 295 296 300 303 302 300 298
214 216 218 218 220 222 221 221 222 223 227 230 231 229 228 228 227 225 224 226 227 226 227 230 229 227 225 222 222 225 229 232 234 231 228 230 233 236 236 236 238 240 240 240 241 240 237 234 236 239 240 243 247 254 264 263 252 241 239 241 245 250 256 265 272 273 270 265 266 279 287 287 287 291 295 299 298 296 295 296 304 312 310 301 299
216 219 218 218 221 223 223 223 224 225 228 230 230 229 228 228 227 225 224 225 224 223 227 231 230 227 227 225 222 222 224 228 230 229 226 225 224 224 228 229 230 233 235 235 236 237 235 234 236 241 245 249 255 262 265 259 247 237 239 242 245 252 259 263 271 274 268 258 250 256 276 287 291 290 293 298 297 295 296 298 306 316 316 305 303
217 219 217 218 221 223 223 225 225 227 229 231 230 229 228 228 227 225 224 224 223 222 226 230 230 227 228 226 219 218 222 225 228 229 226 221 218 218 223 224 225 228 228 227 231 235 235 235 238 244 248 252 257 257 253 247 238 230 235 242 241 240 247 257 267 272 271 260 243 242 270 285 291 290 294 299 296 293 296 299 302 311 316 312 307
213 216 217 219 222 222 222 224 225 227 230 230 229 228 226 226 225 224 224 224 224 223 225 229 229 227 227 225 216 215 221 223 226 228 224 217 216 217 219 218 220 224 224 224 230 235 235 235 237 240 244 248 251 248 244 243 238 224 215 219 225 230 241 256 267 270 272 265 246 244 266 280 292 296 296 298 294 290 291 294 297 305 311 313 311
213 215 217 219 221 221 221 222 222 222 224 226 226 224 223 224 223 223 223 223 224 225 225 227 227 223 223 224 218 217 222 223 226 228 221 214 212 211 213 214 216 221 220 218 224 227 224 222 224 227 232 237 240 239 240 242 236 221 210 212 224 235 242 255 265 267 271 262 239 234 264 284 299 302 298 299 297 291 288 290 296 304 308 309 311
214 214 214 215 217 218 218 220 220 218 217 220 222 221 220 221 221 220 221 222 223 224 223 223 224 218 215 221 222 222 224 224 227 227 218 211 209 205 206 210 214 217 215 210 214 215 210 209 212 217 222 224 225 226 231 234 229 218 212 217 229 237 243 254 252 250 267 259 224 242 280 292 303 305 304 307 304 298 297 296 299 304 306 307 310